When you browse on this site, cookies collect data to enhance your experience and personalize the content and advertising you see.
Visit our Privacy Policy to learn more. By continuing to use the site, you agree to this use of cookies and data.
  • In Hungary
  • List of Countries
  • For 7 days
  • Water Temperature
  • Satellite Maps
  • Weather Map
  • News
  • Weather Widgets
  • user-avatar
    Login

    Hourly Weather Khagaria

    Today, 23 April, Tuesday

    Time Temperature Precipitation Wind Pressure Humidity
    00:00 +33°C° 0 mm 5 mps 751 mmHg 40%
    01:00 +32°C° 0.5 mm 5 mps 751 mmHg 43%
    02:00 +30°C° 0.5 mm 6 mps 751 mmHg 47%
    03:00 +29°C° 0.5 mm 6 mps 751 mmHg 50%
    04:00 +29°C° 0.2 mm 6 mps 751 mmHg 52%
    05:00 +29°C° 0.2 mm 5 mps 751 mmHg 53%
    06:00 +29°C° 0.2 mm 5 mps 751 mmHg 55%
    07:00 +30°C° 0.5 mm 5 mps 752 mmHg 53%
    08:00 +32°C° 0.5 mm 5 mps 753 mmHg 50%
    09:00 +32°C° 0.5 mm 5 mps 753 mmHg 48%
    10:00 +34°C° 0.3 mm 5 mps 753 mmHg 44%
    11:00 +36°C° 0.3 mm 5 mps 753 mmHg 41%
    12:00 +37°C° 0.3 mm 5 mps 753 mmHg 37%
    13:00 +38°C° 0 mm 4 mps 752 mmHg 33%
    14:00 +40°C° 0 mm 4 mps 751 mmHg 29%
    15:00 +40°C° 0 mm 3 mps 751 mmHg 25%
    16:00 +39°C° 0 mm 3 mps 750 mmHg 26%
    17:00 +39°C° 0 mm 3 mps 750 mmHg 26%
    18:00 +39°C° 0 mm 3 mps 750 mmHg 27%
    19:00 +37°C° 0 mm 4 mps 750 mmHg 33%
    20:00 +35°C° 0 mm 4 mps 751 mmHg 39%
    21:00 +34°C° 0 mm 4 mps 751 mmHg 45%
    22:00 +34°C° 0 mm 4 mps 752 mmHg 43%
    23:00 +33°C° 0 mm 3 mps 752 mmHg 42%

    Tomorrow, 24 April, Wednesday

    Time Temperature Precipitation Wind Pressure Humidity
    00:00 +33°C° 0 mm 3 mps 752 mmHg 41%
    01:00 +33°C° 0 mm 3 mps 752 mmHg 42%
    02:00 +31°C° 0 mm 3 mps 752 mmHg 44%
    03:00 +31°C° 0 mm 2 mps 751 mmHg 45%
    04:00 +30°C° 0 mm 2 mps 751 mmHg 47%
    05:00 +30°C° 0 mm 2 mps 752 mmHg 49%
    06:00 +30°C° 0 mm 3 mps 752 mmHg 51%
    07:00 +33°C° 0 mm 3 mps 752 mmHg 48%
    08:00 +34°C° 0 mm 4 mps 753 mmHg 44%
    09:00 +36°C° 0 mm 5 mps 753 mmHg 40%
    10:00 +38°C° 0 mm 4 mps 753 mmHg 36%
    11:00 +40°C° 0 mm 4 mps 753 mmHg 32%
    12:00 +41°C° 0 mm 4 mps 753 mmHg 29%
    13:00 +42°C° 0 mm 3 mps 752 mmHg 27%
    14:00 +42°C° 0 mm 3 mps 751 mmHg 25%
    15:00 +41°C° 0 mm 2 mps 750 mmHg 23%
    16:00 +41°C° 0 mm 2 mps 750 mmHg 24%
    17:00 +41°C° 0 mm 2 mps 750 mmHg 24%
    18:00 +40°C° 0 mm 2 mps 749 mmHg 25%
    19:00 +39°C° 0 mm 3 mps 750 mmHg 26%
    20:00 +38°C° 0 mm 3 mps 750 mmHg 28%
    21:00 +37°C° 0 mm 3 mps 751 mmHg 30%
    22:00 +37°C° 0 mm 3 mps 751 mmHg 31%
    23:00 +36°C° 0 mm 3 mps 751 mmHg 32%

    Day after tomorrow, 25 April, Thursday

    Time Temperature Precipitation Wind Pressure Humidity
    00:00 +36°C° 0 mm 3 mps 751 mmHg 32%
    01:00 +35°C° 0 mm 3 mps 750 mmHg 34%
    02:00 +35°C° 0 mm 3 mps 750 mmHg 35%
    03:00 +34°C° 0 mm 3 mps 750 mmHg 36%
    04:00 +34°C° 0 mm 3 mps 750 mmHg 38%
    05:00 +33°C° 0 mm 3 mps 750 mmHg 39%
    06:00 +33°C° 0 mm 3 mps 750 mmHg 41%
    07:00 +34°C° 0 mm 3 mps 751 mmHg 39%
    08:00 +36°C° 0 mm 4 mps 751 mmHg 37%
    09:00 +38°C° 0 mm 4 mps 752 mmHg 36%
    10:00 +40°C° 0 mm 4 mps 752 mmHg 33%
    11:00 +41°C° 0 mm 4 mps 752 mmHg 30%
    12:00 +43°C° 0 mm 5 mps 752 mmHg 26%
    13:00 +43°C° 0 mm 4 mps 751 mmHg 26%
    14:00 +43°C° 0 mm 3 mps 750 mmHg 26%
    15:00 +43°C° 0 mm 3 mps 749 mmHg 25%
    16:00 +43°C° 0 mm 3 mps 749 mmHg 26%
    17:00 +42°C° 0 mm 3 mps 748 mmHg 27%
    18:00 +42°C° 0 mm 3 mps 748 mmHg 28%
    19:00 +40°C° 0 mm 3 mps 749 mmHg 30%
    20:00 +39°C° 0 mm 2 mps 749 mmHg 32%
    21:00 +38°C° 0 mm 2 mps 750 mmHg 34%
    22:00 +38°C° 0 mm 2 mps 750 mmHg 34%
    23:00 +37°C° 0 mm 2 mps 750 mmHg 34%

    26 April, Friday

    Time Temperature Precipitation Wind Pressure Humidity
    00:00 +37°C° 0 mm 2 mps 750 mmHg 34%
    01:00 +37°C° 0 mm 2 mps 749 mmHg 35%
    02:00 +36°C° 0 mm 2 mps 749 mmHg 36%
    03:00 +36°C° 0 mm 2 mps 748 mmHg 37%
    04:00 +35°C° 0 mm 3 mps 748 mmHg 39%
    05:00 +35°C° 0 mm 3 mps 748 mmHg 41%
    06:00 +34°C° 0 mm 3 mps 748 mmHg 43%
    07:00 +36°C° 0 mm 3 mps 749 mmHg 41%
    08:00 +37°C° 0 mm 3 mps 750 mmHg 39%
    09:00 +39°C° 0 mm 3 mps 750 mmHg 38%
    10:00 +41°C° 0 mm 2 mps 750 mmHg 33%
    11:00 +42°C° 0 mm 2 mps 750 mmHg 28%
    12:00 +44°C° 0 mm 1 mps 750 mmHg 24%
    13:00 +43°C° 0 mm 1 mps 749 mmHg 24%
    14:00 +43°C° 0 mm 1 mps 748 mmHg 24%
    15:00 +42°C° 0 mm 1 mps 747 mmHg 24%
    16:00 +42°C° 0 mm 1 mps 747 mmHg 24%
    17:00 +42°C° 0 mm 2 mps 747 mmHg 25%
    18:00 +42°C° 0 mm 2 mps 747 mmHg 25%
    19:00 +42°C° 0 mm 3 mps 748 mmHg 28%
    20:00 +39°C° 0 mm 3 mps 748 mmHg 32%
    21:00 +38°C° 0 mm 4 mps 749 mmHg 36%
    22:00 +37°C° 0 mm 4 mps 749 mmHg 37%
    23:00 +37°C° 0 mm 3 mps 749 mmHg 39%

    27 April, Saturday

    Time Temperature Precipitation Wind Pressure Humidity
    00:00 +36°C° 0 mm 3 mps 748 mmHg 40%
    01:00 +36°C° 0 mm 3 mps 748 mmHg 41%
    02:00 +35°C° 0 mm 3 mps 748 mmHg 42%
    03:00 +35°C° 0 mm 3 mps 748 mmHg 43%
    04:00 +34°C° 0 mm 3 mps 748 mmHg 46%
    05:00 +34°C° 0 mm 3 mps 748 mmHg 49%
    06:00 +33°C° 0 mm 3 mps 748 mmHg 52%
    07:00 +35°C° 0 mm 3 mps 749 mmHg 49%
    08:00 +37°C° 0 mm 3 mps 749 mmHg 46%
    09:00 +39°C° 0 mm 3 mps 750 mmHg 43%
    10:00 +42°C° 0 mm 3 mps 749 mmHg 37%
    11:00 +43°C° 0 mm 3 mps 749 mmHg 31%
    12:00 +45°C° 0 mm 3 mps 749 mmHg 26%
    13:00 +46°C° 0 mm 2 mps 748 mmHg 22%
    14:00 +47°C° 0 mm 2 mps 747 mmHg 19%
    15:00 +47°C° 0 mm 1 mps 746 mmHg 15%
    16:00 +48°C° 0 mm 2 mps 746 mmHg 15%
    17:00 +47°C° 0 mm 2 mps 745 mmHg 15%
    18:00 +47°C° 0 mm 2 mps 745 mmHg 15%
    19:00 +45°C° 0 mm 3 mps 746 mmHg 18%
    20:00 +44°C° 0 mm 3 mps 746 mmHg 21%
    21:00 +42°C° 0 mm 4 mps 747 mmHg 24%
    22:00 +41°C° 0 mm 5 mps 747 mmHg 29%
    23:00 +40°C° 0 mm 6 mps 747 mmHg 34%

    28 April, Sunday

    Time Temperature Precipitation Wind Pressure Humidity
    00:00 +39°C° 0 mm 7 mps 747 mmHg 39%
    01:00 +38°C° 0 mm 6 mps 747 mmHg 42%
    02:00 +38°C° 0 mm 6 mps 746 mmHg 45%
    03:00 +36°C° 0 mm 5 mps 746 mmHg 49%
    04:00 +35°C° 0 mm 5 mps 746 mmHg 52%
    05:00 +35°C° 0 mm 5 mps 746 mmHg 55%
    06:00 +34°C° 0 mm 4 mps 747 mmHg 59%
    07:00 +36°C° 0 mm 5 mps 747 mmHg 55%
    08:00 +37°C° 0 mm 5 mps 748 mmHg 51%
    09:00 +39°C° 0 mm 5 mps 748 mmHg 47%
    10:00 +41°C° 0 mm 5 mps 748 mmHg 41%
    11:00 +43°C° 0 mm 4 mps 748 mmHg 35%
    12:00 +44°C° 0 mm 3 mps 747 mmHg 29%
    13:00 +47°C° 0 mm 4 mps 746 mmHg 24%
    14:00 +48°C° 0 mm 4 mps 746 mmHg 19%
    15:00 +49°C° 0 mm 4 mps 745 mmHg 14%
    16:00 +48°C° 0 mm 4 mps 745 mmHg 15%
    17:00 +48°C° 0 mm 4 mps 745 mmHg 15%
    18:00 +47°C° 0 mm 5 mps 744 mmHg 15%
    19:00 +46°C° 0 mm 5 mps 745 mmHg 22%
    20:00 +44°C° 0 mm 6 mps 746 mmHg 28%
    21:00 +41°C° 0 mm 6 mps 746 mmHg 35%
    22:00 +40°C° 0 mm 6 mps 746 mmHg 42%
    23:00 +38°C° 0 mm 6 mps 746 mmHg 49%
    Show more